Hourly Weather Al Hillah

Today, 1 December, Tuesday

Time Temperature Precipitation Wind Pressure Humidity
00:00 +15°C° 0 mm 0 mps 762 mmHg 62%
01:00 +15°C° 0 mm 0 mps 761 mmHg 63%
02:00 +14°C° 0 mm 0 mps 761 mmHg 63%
03:00 +14°C° 0 mm 0 mps 761 mmHg 63%
04:00 +14°C° 0 mm 0 mps 761 mmHg 63%
05:00 +14°C° 0 mm 0 mps 761 mmHg 64%
06:00 +13°C° 0 mm 0 mps 761 mmHg 64%
07:00 +15°C° 0 mm 0 mps 761 mmHg 59%
08:00 +16°C° 0 mm 0 mps 761 mmHg 54%
09:00 +17°C° 0 mm 0 mps 761 mmHg 48%
10:00 +20°C° 0 mm 1 mps 761 mmHg 45%
11:00 +21°C° 0 mm 1 mps 761 mmHg 42%
12:00 +22°C° 0 mm 1 mps 761 mmHg 39%
13:00 +22°C° 0 mm 1 mps 761 mmHg 37%
14:00 +22°C° 0 mm 1 mps 760 mmHg 35%
15:00 +23°C° 0 mm 2 mps 760 mmHg 33%
16:00 +21°C° 0 mm 2 mps 760 mmHg 36%
17:00 +20°C° 0 mm 2 mps 760 mmHg 38%
18:00 +19°C° 0 mm 2 mps 760 mmHg 41%
19:00 +19°C° 0 mm 2 mps 761 mmHg 43%
20:00 +19°C° 0 mm 3 mps 761 mmHg 44%
21:00 +18°C° 0 mm 3 mps 761 mmHg 46%
22:00 +18°C° 0 mm 3 mps 761 mmHg 47%
23:00 +18°C° 0 mm 3 mps 761 mmHg 49%

Tomorrow, 2 December, Wednesday

Time Temperature Precipitation Wind Pressure Humidity
00:00 +17°C° 0 mm 3 mps 761 mmHg 50%
01:00 +17°C° 0 mm 3 mps 761 mmHg 52%
02:00 +17°C° 0 mm 3 mps 761 mmHg 53%
03:00 +17°C° 0 mm 3 mps 761 mmHg 55%
04:00 +17°C° 0.1 mm 3 mps 761 mmHg 62%
05:00 +16°C° 0.1 mm 3 mps 761 mmHg 69%
06:00 +14°C° 0.1 mm 3 mps 761 mmHg 77%
07:00 +16°C° 0.7 mm 3 mps 761 mmHg 78%
08:00 +16°C° 0.7 mm 3 mps 761 mmHg 79%
09:00 +16°C° 0.7 mm 3 mps 761 mmHg 80%
10:00 +17°C° 0.6 mm 3 mps 761 mmHg 77%
11:00 +17°C° 0.6 mm 3 mps 761 mmHg 75%
12:00 +18°C° 0.6 mm 3 mps 760 mmHg 72%
13:00 +17°C° 0.4 mm 3 mps 760 mmHg 73%
14:00 +17°C° 0.4 mm 4 mps 760 mmHg 74%
15:00 +17°C° 0.4 mm 4 mps 760 mmHg 76%
16:00 +17°C° 0.6 mm 4 mps 760 mmHg 77%
17:00 +17°C° 0.6 mm 4 mps 760 mmHg 78%
18:00 +16°C° 0.6 mm 3 mps 760 mmHg 79%
19:00 +16°C° 0.4 mm 3 mps 760 mmHg 79%
20:00 +16°C° 0.4 mm 3 mps 760 mmHg 79%
21:00 +17°C° 0.4 mm 3 mps 760 mmHg 80%
22:00 +16°C° 0.1 mm 2 mps 760 mmHg 80%
23:00 +16°C° 0.1 mm 2 mps 761 mmHg 81%

Day after tomorrow, 3 December, Thursday

Time Temperature Precipitation Wind Pressure Humidity
00:00 +16°C° 0.1 mm 2 mps 761 mmHg 82%
01:00 +16°C° 0 mm 2 mps 761 mmHg 82%
02:00 +16°C° 0 mm 2 mps 761 mmHg 82%
03:00 +16°C° 0 mm 3 mps 760 mmHg 82%
04:00 +16°C° 0 mm 3 mps 761 mmHg 81%
05:00 +16°C° 0 mm 3 mps 761 mmHg 80%
06:00 +16°C° 0 mm 3 mps 761 mmHg 79%
07:00 +17°C° 0 mm 2 mps 762 mmHg 78%
08:00 +17°C° 0 mm 2 mps 762 mmHg 77%
09:00 +17°C° 0 mm 2 mps 762 mmHg 75%
10:00 +19°C° 0 mm 1 mps 762 mmHg 72%
11:00 +19°C° 0 mm 1 mps 762 mmHg 70%
12:00 +20°C° 0 mm 1 mps 762 mmHg 67%
13:00 +21°C° 0 mm 1 mps 761 mmHg 65%
14:00 +21°C° 0 mm 1 mps 761 mmHg 63%
15:00 +21°C° 0 mm 2 mps 761 mmHg 62%
16:00 +20°C° 0 mm 2 mps 761 mmHg 64%
17:00 +19°C° 0 mm 2 mps 761 mmHg 67%
18:00 +18°C° 0 mm 2 mps 761 mmHg 70%
19:00 +18°C° 0 mm 2 mps 761 mmHg 71%
20:00 +19°C° 0 mm 1 mps 761 mmHg 71%
21:00 +18°C° 0 mm 1 mps 761 mmHg 72%
22:00 +18°C° 0 mm 1 mps 761 mmHg 73%
23:00 +18°C° 0 mm 1 mps 761 mmHg 74%

4 December, Friday

Time Temperature Precipitation Wind Pressure Humidity
00:00 +18°C° 0 mm 1 mps 761 mmHg 74%
01:00 +16°C° 0 mm 1 mps 761 mmHg 75%
02:00 +16°C° 0 mm 1 mps 761 mmHg 76%
03:00 +16°C° 0 mm 1 mps 760 mmHg 77%
04:00 +16°C° 0 mm 1 mps 760 mmHg 76%
05:00 +16°C° 0 mm 1 mps 760 mmHg 76%
06:00 +15°C° 0 mm 2 mps 760 mmHg 76%
07:00 +16°C° 0 mm 1 mps 761 mmHg 71%
08:00 +18°C° 0 mm 1 mps 761 mmHg 66%
09:00 +19°C° 0 mm 1 mps 761 mmHg 61%
10:00 +20°C° 0 mm 1 mps 761 mmHg 57%
11:00 +21°C° 0 mm 1 mps 761 mmHg 54%
12:00 +22°C° 0 mm 1 mps 760 mmHg 50%
13:00 +22°C° 0 mm 1 mps 760 mmHg 48%
14:00 +22°C° 0 mm 1 mps 760 mmHg 47%
15:00 +23°C° 0 mm 1 mps 759 mmHg 45%
16:00 +21°C° 0 mm 2 mps 759 mmHg 49%
17:00 +20°C° 0 mm 2 mps 759 mmHg 52%
18:00 +19°C° 0 mm 2 mps 759 mmHg 55%
19:00 +19°C° 0 mm 2 mps 759 mmHg 56%
20:00 +18°C° 0 mm 2 mps 760 mmHg 56%
21:00 +18°C° 0 mm 2 mps 760 mmHg 56%
22:00 +18°C° 0 mm 2 mps 760 mmHg 55%
23:00 +18°C° 0 mm 2 mps 759 mmHg 55%

5 December, Saturday

Time Temperature Precipitation Wind Pressure Humidity
00:00 +18°C° 0 mm 2 mps 759 mmHg 54%
01:00 +18°C° 0 mm 2 mps 759 mmHg 54%
02:00 +18°C° 0 mm 2 mps 759 mmHg 54%
03:00 +18°C° 0 mm 2 mps 759 mmHg 54%
04:00 +18°C° 0 mm 2 mps 758 mmHg 54%
05:00 +17°C° 0 mm 2 mps 758 mmHg 54%
06:00 +17°C° 0 mm 2 mps 758 mmHg 54%
07:00 +18°C° 0 mm 2 mps 759 mmHg 53%
08:00 +18°C° 0 mm 2 mps 759 mmHg 51%
09:00 +18°C° 0 mm 2 mps 759 mmHg 49%
10:00 +19°C° 0 mm 2 mps 759 mmHg 47%
11:00 +20°C° 0 mm 2 mps 758 mmHg 44%
12:00 +20°C° 0 mm 2 mps 758 mmHg 41%
13:00 +21°C° 0 mm 2 mps 757 mmHg 40%
14:00 +21°C° 0 mm 3 mps 757 mmHg 40%
15:00 +21°C° 0 mm 3 mps 756 mmHg 39%
16:00 +20°C° 0 mm 3 mps 756 mmHg 42%
17:00 +19°C° 0 mm 3 mps 757 mmHg 45%
18:00 +19°C° 0 mm 3 mps 757 mmHg 47%
19:00 +18°C° 0 mm 3 mps 757 mmHg 49%
20:00 +18°C° 0 mm 3 mps 757 mmHg 51%
21:00 +18°C° 0 mm 3 mps 757 mmHg 53%
22:00 +17°C° 0 mm 3 mps 757 mmHg 54%
23:00 +17°C° 0 mm 3 mps 757 mmHg 55%

6 December, Sunday

Time Temperature Precipitation Wind Pressure Humidity
00:00 +17°C° 0 mm 3 mps 757 mmHg 55%
01:00 +16°C° 0 mm 3 mps 757 mmHg 56%
02:00 +15°C° 0 mm 4 mps 757 mmHg 56%
03:00 +15°C° 0 mm 4 mps 757 mmHg 56%
04:00 +15°C° 0 mm 4 mps 757 mmHg 55%
05:00 +14°C° 0 mm 4 mps 757 mmHg 53%
06:00 +14°C° 0 mm 5 mps 757 mmHg 52%
07:00 +15°C° 0 mm 5 mps 757 mmHg 50%
08:00 +15°C° 0 mm 5 mps 758 mmHg 48%
09:00 +16°C° 0 mm 6 mps 758 mmHg 45%
10:00 +17°C° 0 mm 6 mps 758 mmHg 42%
11:00 +19°C° 0 mm 6 mps 758 mmHg 40%
12:00 +20°C° 0 mm 6 mps 758 mmHg 37%
13:00 +20°C° 0 mm 6 mps 757 mmHg 36%
14:00 +21°C° 0 mm 6 mps 757 mmHg 35%
15:00 +21°C° 0 mm 6 mps 757 mmHg 34%
16:00 +20°C° 0 mm 5 mps 757 mmHg 36%
17:00 +19°C° 0 mm 4 mps 758 mmHg 38%
18:00 +18°C° 0 mm 4 mps 758 mmHg 40%
19:00 +18°C° 0 mm 4 mps 758 mmHg 41%
20:00 +17°C° 0 mm 4 mps 758 mmHg 42%
21:00 +17°C° 0 mm 4 mps 758 mmHg 43%
22:00 +15°C° 0 mm 4 mps 759 mmHg 44%
23:00 +15°C° 0 mm 4 mps 759 mmHg 46%
Show more